Location: Waco, TX
(31.5480°N, 97.1670°W)
Time: 01:33:48
(UTC-05:00)

ISS - Pass Details

Date: 03 January 2018
Orbit: 402 x 408 km, 51.6° (Epoch: 22 July)

Event Time Altitude Azimuth Distance (km) Brightness Sun altitude
Rises 10:12:23 0° 330° (NNW) 2,370 -0.5 26.1°
Reaches altitude 10° 10:15:02 10° 352° (N) 1,506 -1.3 26.4°
Maximum altitude 10:17:19 17° 35° (NE) 1,160 -1.6 26.7°
Drops below altitude 10° 10:19:36 10° 77° (ENE) 1,505 -0.6 27.0°
Sets 10:22:14 0° 99° (E) 2,367 0.7 27.3°
